Temp
18 17 18 20 20 20 21 21 21 21 21 21 20 20 20 19 19 18 19 19 18 19 19 18 18 18 18 18 18 18 18 18 18 17 17 17 17 17 17 18 18 17
17 17 19 20 20 20 21 21 21 20 21 21 20 20 20 19 19 19 19 19 18 18 18 18 18 18 18 19 18 18 18 18 17 17 17 17 17 17 17 17 18 17
18 18 20 20 20 20 20 20 20 20 20 20 20 20 19 19 19 19 18 19 19 18 18 18 18 18 19 19 18 18 18 18 17 17 18 17 17 17 17 17 17 17
18 19 20 20 20 20 19 20 20 20 20 20 20 19 19 18 18 18 18 19 18 18 18 18 18 18 19 19 18 18 18 18 18 18 18 18 18 18 17 18 18 18
18 19 19 20 19 19 19 19 20 20 19 19 19 19 19 18 18 18 19 19 18 18 18 18 18 18 19 19 18 18 18 18 18 18 18 18 18 18 18 18 18 18
18 19 19 19 19 19 19 19 19 19 19 19 19 19 19 18 18 19 19 19 19 18 18 18 18 18 19 19 19 18 18 18 18 18 18 18 18 18 18 18 18 18
18 18 19 19 19 19 19 19 19 19 19 19 19 19 19 19 19 19 19 19 19 19 19 19 19 18 18 18 19 18 18 18 18 18 19 19 18 18 18 18 18 18
18 18 19 19 19 19 19 19 19 19 19 18 18 19 19 19 19 19 19 19 19 19 19 19 19 18 18 19 19 18 18 19 19 19 19 19 19 19 19 18 18 18
18 18 18 19 19 19 19 19 19 19 19 18 18 18 19 19 19 19 19 19 19 19 19 19 19 19 18 19 19 19 19 19 19 19 20 19 19 19 19 19 18 18
18 18 18 18 18 18 18 18 18 18 18 18 18 18 19 19 19 19 19 19 19 19 19 19 19 19 19 19 19 19 19 19 19 19 19 19 19 20 20 19 18 18
18 18 18 18 18 18 18 18 18 18 18 18 18 19 19 19 19 19 19 19 19 19 19 19 19 19 19 19 19 19 19 19 19 19 19 20 19 19 20 19 18 18
17 17 17 18 18 18 18 18 18 18 18 19 19 19 18 18 19 19 19 19 19 19 19 19 19 19 19 19 19 19 19 19 19 19 19 19 19 19 19 19 19 18
17 17 17 17 18 18 18 18 18 18 18 19 18 18 18 18 19 19 19 19 19 19 19 19 19 19 19 19 19 19 19 19 19 19 19 19 19 19 19 19 19 18
16 16 17 17 17 18 18 18 18 18 18 18 18 18 18 19 19 19 19 19 19 19 19 19 19 18 18 18 19 19 19 19 18 19 19 19 19 19 19 19 19 18
16 16 16 17 17 18 18 18 18 18 18 18 18 18 18 19 19 19 19 19 19 19 19 18 17 17 17 17 18 18 18 19 18 19 19 19 19 19 19 19 19 18
16 15 16 16 17 17 18 18 18 18 18 18 18 18 18 18 18 18 18 18 18 18 17 16 16 17 17 17 17 17 18 18 18 18 19 19 19 19 19 19 19 18
16 15 16 16 17 17 17 17 17 17 17 17 17 17 18 18 18 18 18 18 17 17 16 16 16 16 17 17 17 17 17 18 18 18 19 19 19 19 19 19 19 18
15 15 15 16 16 17 16 16 16 16 16 16 16 16 17 17 17 17 16 16 16 16 16 16 16 16 16 16 16 17 17 17 18 18 18 18 19 19 19 19 19 18
13 13 13 13 14 14 14 14 14 14 15 15 15 15 15 15 15 15 14 15 15 15 15 15 15 16 16 16 16 16 17 17 17 18 18 18 19 19 19 19 19 18
12 12 12 12 13 13 13 13 13 13 13 14 14 14 14 14 14 14 14 14 14 14 15 15 15 15 15 16 16 16 16 17 17 18 18 18 18 18 18 18 18 18
11 11 11 11 12 13 13 14 13 13 12 13 13 13 13 13 13 13 13 13 13 13 14 14 14 14 15 15 16 16 16 16 16 17 17 18 18 17 17 17 17 18
9 10 10 10 11 12 12 13 13 12 12 12 12 12 12 12 12 12 12 12 12 12 13 13 13 13 14 14 15 15 15 16 16 16 17 17 17 17 17 17 17 17
9 9 9 9 10 10 10 10 10 11 10 10 11 11 11 11 11 11 12 12 11 11 12 13 13 13 13 14 14 15 15 16 16 17 17 17 17 16 16 17 17 16
8 8 8 8 9 9 9 9 9 10 10 10 10 10 11 11 11 11 11 11 11 11 12 12 13 13 13 13 14 14 15 15 15 16 17 17 17 17 17 17 16 16
7 7 7 8 8 8 8 9 9 9 9 10 10 11 11 10 11 11 11 11 11 11 11 11 12 12 13 13 13 14 14 14 15 16 17 16 16 17 17 17 16 15
7 7 7 7 7 8 8 8 9 9 9 10 11 11 11 11 11 11 10 11 11 10 10 10 10 11 11 12 12 13 13 13 13 14 14 14 15 15 16 16 16 15
Height
795 799 799 797 797 798 799 801 803 805 807 809 811 812 813 815 816 818 819 820 822 823 824 825 826 827 828 828 829 830 830 831 831 831 832 832 833 834 835 835 836 837
795 798 797 796 797 798 800 802 804 806 808 809 811 812 814 815 816 817 819 820 821 823 824 825 826 827 828 828 829 830 830 830 830 831 831 832 833 833 834 835 836 837
793 795 796 797 797 799 801 803 805 807 808 810 811 813 814 815 816 817 818 820 821 822 824 825 826 827 827 828 829 829 829 829 830 831 831 832 833 833 834 835 835 836
791 794 795 796 797 799 801 803 805 807 808 810 811 813 814 816 817 818 818 820 821 822 824 825 826 827 827 828 829 829 829 829 830 830 831 831 832 833 833 834 835 835
791 793 794 796 798 800 802 804 805 807 809 811 812 813 815 816 817 818 819 820 821 822 824 824 825 826 827 828 829 829 830 830 830 830 831 831 832 832 833 833 834 835
791 792 794 796 798 801 803 804 806 808 810 811 812 814 815 817 818 818 819 820 822 823 824 824 825 826 827 828 829 829 830 830 831 831 831 832 832 833 833 833 834 835
790 791 794 797 799 802 803 805 807 808 810 812 813 814 816 817 818 819 820 821 822 823 824 825 826 826 827 827 828 829 830 831 831 831 832 832 833 833 833 834 834 834
790 791 794 797 799 802 803 805 807 809 810 812 813 815 816 817 818 819 820 821 822 823 824 825 826 826 827 827 828 829 830 830 831 831 831 831 832 833 833 834 834 834
789 791 794 797 799 801 804 806 807 809 811 812 813 815 816 817 818 819 820 821 822 823 824 825 826 827 827 827 828 829 829 830 830 831 831 832 832 833 833 834 834 834
789 792 794 797 799 801 804 806 807 809 811 812 813 815 816 817 818 819 820 821 822 823 824 825 826 827 827 827 828 828 829 830 830 831 831 832 832 832 832 833 834 834
789 792 795 797 799 802 804 806 807 809 811 812 813 815 816 818 819 820 821 821 822 823 824 826 826 827 827 827 828 829 829 830 830 831 831 831 832 832 832 833 834 834
789 792 795 797 800 802 804 806 807 809 811 812 814 815 817 818 818 820 821 822 822 823 824 826 826 827 827 828 828 829 829 830 830 831 831 832 832 833 833 833 834 833
787 791 795 798 801 802 804 806 807 809 811 812 814 816 817 818 819 820 821 822 822 823 824 826 826 827 828 828 829 829 830 830 831 832 832 832 833 833 833 834 834 834
787 792 796 799 801 803 804 806 807 809 810 812 814 816 817 818 819 820 821 822 823 824 825 826 827 827 828 828 828 829 830 831 831 832 832 833 833 833 834 834 834 834
788 793 797 800 802 803 805 806 807 809 810 812 814 816 818 819 819 821 822 823 824 825 826 827 827 827 827 828 828 829 830 831 831 832 832 833 834 834 835 835 835 835
789 794 799 801 802 803 805 806 808 810 811 813 815 816 818 819 820 821 822 824 825 826 827 827 827 828 828 829 829 829 830 831 832 832 832 833 833 834 835 835 835 836
791 796 800 800 801 803 805 806 808 810 811 813 815 817 819 819 821 822 823 824 825 826 827 828 828 829 830 830 830 830 831 831 832 833 833 833 834 834 835 835 835 836
793 797 799 799 801 803 806 807 809 810 812 814 816 818 819 820 821 822 823 824 825 826 828 828 829 830 830 831 832 832 832 832 832 833 834 834 834 834 834 835 835 836
794 796 798 799 800 803 807 808 809 811 812 815 817 818 820 822 822 823 824 825 826 827 828 829 829 830 830 831 832 832 833 833 833 833 834 834 834 835 835 835 835 836
795 797 799 801 801 804 807 810 811 812 814 816 818 820 821 823 824 825 825 827 827 828 828 829 829 830 831 831 832 833 833 834 834 834 834 834 835 836 836 836 837 837
799 801 803 804 804 806 808 810 812 813 815 816 818 820 822 824 826 826 828 829 829 828 828 829 830 830 831 832 832 833 834 834 835 835 835 835 836 836 837 837 838 838
802 803 805 806 807 808 810 812 813 815 817 818 819 821 824 826 827 828 829 830 830 829 829 829 830 831 831 832 832 833 834 834 835 836 836 836 836 837 837 837 838 838
806 807 808 808 809 811 813 814 816 817 819 820 821 823 824 826 827 828 828 829 830 830 830 830 831 831 832 832 833 833 834 834 835 835 836 836 836 837 837 837 837 837
809 810 811 811 812 814 816 817 818 819 820 821 823 824 826 827 827 827 828 829 829 830 831 831 832 832 832 833 833 834 834 834 835 836 835 836 836 836 836 837 836 836
812 813 815 815 816 817 818 820 821 822 823 824 825 826 827 828 828 829 829 829 830 831 832 832 832 832 833 834 834 834 835 835 836 836 836 836 836 836 836 836 836 835
816 817 818 819 820 820 820 822 823 824 825 826 827 828 829 829 830 830 830 830 831 833 833 833 833 833 834 834 834 835 835 836 837 837 836 836 837 836 836 836 836 834
Wind_Speed
21 19 18 19 17 17 17 15 15 14 13 12 10 11 10 10 11 10 8 8 7 7 6 6 6 6 6 7 7 7 7 8 8 8 8 8 9 9 8 8 7 5
22 18 17 17 16 16 16 15 15 13 11 11 10 10 10 10 11 9 8 8 7 7 7 6 6 5 6 6 7 7 7 8 9 8 8 9 9 9 9 10 8 7
20 18 16 16 15 16 16 15 14 13 11 10 10 10 10 10 10 9 8 8 7 8 7 6 5 5 5 5 6 7 8 8 9 9 8 9 10 9 10 9 9 9
19 18 16 16 16 16 16 15 15 13 11 11 10 9 9 9 9 9 9 9 8 8 8 7 6 5 5 5 5 6 7 7 8 9 9 9 9 9 9 7 8 9
18 18 16 16 17 17 16 15 15 13 12 11 10 9 9 9 9 9 9 9 9 9 8 7 6 5 4 4 5 6 6 6 7 7 8 8 8 8 8 7 8 8
16 17 16 15 16 18 16 15 14 13 13 11 11 9 9 9 9 10 10 9 9 9 9 8 6 5 5 4 5 5 5 6 6 6 7 7 6 7 7 7 9 9
17 17 17 16 17 18 16 15 14 13 13 12 11 9 9 9 9 9 10 9 9 10 9 8 6 5 5 4 5 5 5 6 6 6 6 6 5 6 6 7 8 8
19 18 17 17 18 18 16 16 15 14 13 12 11 10 9 10 9 9 9 9 10 10 9 8 7 6 6 5 5 5 5 6 6 6 6 5 5 5 6 6 7 7
19 18 18 18 19 18 17 16 15 14 13 12 11 10 10 9 9 9 9 9 9 9 9 8 7 7 6 6 6 6 6 5 4 4 4 5 5 5 6 6 6 7
20 18 18 19 20 18 17 16 15 14 13 13 12 10 10 9 9 9 8 8 9 9 9 8 7 7 6 6 7 6 6 5 4 4 5 5 5 4 4 5 6 7
20 19 18 19 19 18 18 17 16 15 14 13 12 11 10 10 9 9 8 9 9 9 9 8 7 7 7 6 6 6 6 6 6 6 6 5 4 3 2 3 6 7
19 18 17 19 19 17 18 18 16 15 14 13 12 11 10 10 10 9 9 9 9 9 8 7 7 7 7 7 7 6 6 6 6 6 6 5 5 4 2 2 5 7
21 19 18 20 20 18 18 18 16 15 14 13 12 11 10 10 10 9 9 9 9 9 7 7 6 6 6 6 7 7 6 6 6 6 6 5 5 5 3 1 3 6
22 18 18 20 19 17 17 17 16 15 14 13 13 12 10 10 10 9 9 8 8 8 7 7 5 5 6 5 5 6 6 6 6 6 7 6 4 4 3 1 1 4
24 19 16 16 17 16 16 16 16 15 14 14 13 12 11 10 10 9 9 8 8 8 7 6 4 5 7 5 4 5 5 5 5 6 7 7 6 5 4 3 2 2
24 20 16 15 16 17 15 15 16 15 15 15 14 12 11 11 10 9 9 9 8 8 6 4 4 6 8 5 4 5 3 3 5 5 5 6 7 7 6 5 4 3
22 20 17 15 16 17 16 16 17 15 15 14 13 12 11 10 10 9 8 9 9 8 6 5 5 7 7 6 4 3 3 2 3 4 5 5 6 6 6 6 5 5
18 17 15 15 15 16 16 16 16 15 15 15 12 11 9 9 9 9 9 10 9 8 7 7 7 7 7 7 6 5 4 2 2 3 4 5 6 6 6 7 7 6
18 17 17 17 16 16 16 16 17 16 15 14 13 12 11 10 10 10 10 10 9 9 9 8 7 7 7 7 7 6 7 4 2 3 5 5 4 4 4 4 6 6
20 20 19 19 19 20 19 18 17 16 15 13 11 11 11 11 11 10 8 8 9 11 11 10 9 8 6 6 6 6 8 5 1 2 4 4 3 4 3 2 4 4
21 21 19 19 19 18 18 15 12 12 13 13 12 11 11 11 12 11 9 8 9 11 12 11 9 9 7 7 6 6 7 5 1 2 3 3 3 4 4 4 5 4
18 19 18 17 17 16 16 13 10 9 11 12 13 13 14 13 13 12 11 9 8 9 10 10 9 7 7 6 6 6 5 3 1 3 3 3 3 4 4 5 5 5
18 18 17 16 16 17 18 16 15 14 13 13 14 15 15 15 14 13 13 12 10 8 8 8 7 6 5 4 4 4 3 1 2 4 4 4 4 4 4 5 4 5
18 18 17 17 17 17 17 16 16 17 15 14 14 14 13 12 12 13 13 12 10 8 7 6 5 3 2 2 1 2 2 0 3 4 4 4 4 4 4 4 5 6
19 18 17 17 17 17 16 14 14 15 14 13 12 11 9 8 8 8 8 7 6 4 4 3 1 1 1 2 1 2 3 1 4 5 4 4 4 5 4 4 5 6
18 17 17 15 15 15 15 13 11 11 11 10 9 8 7 6 6 6 6 5 4 3 4 3 1 2 3 3 2 3 3 2 3 5 4 4 5 6 6 6 5 4
Wind_Direction
180 200 187 165 162 158 156 160 159 161 164 163 164 163 161 162 161 164 167 169 177 179 182 184 179 183 190 192 199 199 193 191 192 195 200 206 210 206 203 210 211 197
179 189 175 163 160 157 158 158 158 161 160 158 160 157 156 156 158 162 165 169 177 181 183 183 183 190 195 197 203 204 196 191 192 195 199 206 209 211 210 205 204 204
175 176 168 164 158 156 157 154 156 159 156 154 155 154 154 155 158 161 164 168 169 172 178 181 186 200 208 204 200 207 205 196 199 199 197 208 210 211 212 205 202 204
170 170 167 163 158 155 155 154 156 156 154 154 151 153 156 155 159 161 163 166 163 166 174 177 185 199 213 213 200 208 212 201 203 201 195 205 209 208 207 202 206 205
168 165 164 160 158 156 155 156 157 155 153 152 149 151 155 158 162 162 163 167 165 168 172 172 181 196 209 214 206 212 216 206 204 203 203 206 206 206 203 199 206 203
166 162 162 160 159 159 159 157 156 154 154 151 148 151 157 163 165 163 166 171 170 171 174 174 181 195 207 210 203 208 213 213 212 211 216 216 209 213 209 204 207 200
169 164 164 164 163 162 161 158 156 156 154 151 150 154 161 168 169 167 169 173 173 174 176 177 180 188 197 198 193 192 198 209 212 212 218 213 208 216 211 212 217 204
173 163 164 167 164 162 162 160 158 157 156 153 154 158 166 173 173 171 173 174 176 178 177 175 178 181 187 188 180 175 183 196 201 205 208 197 200 215 206 208 219 209
172 164 167 168 164 164 166 163 160 160 160 158 158 163 172 177 175 173 176 177 176 178 175 172 173 175 181 185 176 174 180 188 194 195 191 181 194 211 199 196 209 207
169 167 167 168 166 166 168 166 163 165 165 162 161 168 173 174 174 176 179 178 177 177 171 169 171 171 177 180 177 181 183 182 186 181 179 183 193 210 201 190 199 203
169 169 166 168 169 168 170 169 166 167 168 165 163 169 172 170 172 177 179 178 179 177 170 170 172 171 176 176 172 181 184 183 186 181 183 186 180 198 216 194 202 205
161 163 167 171 169 169 171 169 168 169 168 166 165 167 169 171 173 176 178 179 179 177 173 172 171 170 176 174 170 176 181 183 186 183 185 186 179 190 210 212 213 209
155 158 166 172 171 172 173 171 169 169 166 165 166 168 170 172 172 171 176 179 176 174 171 166 165 167 169 175 178 178 178 182 188 191 189 186 192 197 201 249 224 210
155 157 162 171 174 173 172 171 166 162 162 162 161 164 169 168 166 167 173 175 169 167 164 157 152 148 149 163 175 174 179 182 185 199 199 193 204 202 201 254 217 200
154 156 160 170 171 168 168 167 161 158 157 154 153 157 161 159 156 156 157 156 155 155 150 140 127 129 140 138 117 134 173 188 186 205 209 204 212 207 202 222 200 165
154 156 161 164 162 164 167 163 160 158 150 147 150 153 152 150 150 151 151 150 151 145 135 126 121 138 154 154 117 106 124 170 183 201 212 209 216 214 206 217 204 146
161 167 169 161 156 159 158 154 155 152 144 143 146 148 149 152 152 151 147 142 137 135 141 154 149 150 166 173 165 143 99 93 172 194 209 210 212 215 208 208 204 169
152 161 159 150 148 148 145 140 135 129 126 126 124 125 134 141 133 121 121 129 136 144 156 167 164 167 177 177 180 183 157 139 188 186 197 209 206 213 215 203 200 188
121 124 123 121 122 123 123 122 118 114 116 118 116 115 113 112 107 105 117 133 145 152 152 154 158 166 180 183 187 189 176 181 236 204 195 208 205 215 233 210 202 202
103 107 109 112 115 117 118 118 111 104 107 111 113 113 109 104 102 108 125 137 140 146 144 141 144 144 152 167 174 181 182 185 256 235 201 204 198 209 235 225 221 228
99 106 109 111 114 116 119 120 108 98 101 106 111 116 120 119 112 112 125 133 136 142 140 134 136 136 140 147 147 157 171 172 202 249 225 219 210 212 224 225 231 245
95 102 104 105 107 111 117 121 121 117 115 116 122 128 129 126 117 112 117 120 123 132 136 135 134 134 141 147 148 152 149 138 244 244 235 241 231 224 234 234 233 239
95 98 97 99 103 108 113 118 122 124 123 122 126 131 132 131 128 127 125 118 114 119 128 132 130 130 139 147 158 167 150 78 311 259 240 249 242 233 244 245 232 231
91 94 93 94 97 100 105 111 115 117 117 117 120 124 126 129 133 135 134 129 126 124 124 125 126 126 133 150 170 194 181 59 329 294 263 259 256 251 261 254 242 246
81 85 85 86 90 93 95 98 101 104 103 103 107 110 110 115 124 129 133 137 135 126 117 112 131 191 226 243 252 241 214 222 333 315 293 296 290 279 283 272 256 262
82 84 83 82 83 88 92 91 92 99 101 97 97 104 108 114 119 117 117 120 115 107 106 92 46 291 285 278 280 275 236 205 359 338 325 335 324 303 298 291 271 254